Time,TemperatureF,DewpointF,PressureIn,WindDirection,WindDirectionDegrees,WindSpeedMPH,WindSpeedGustMPH,Humidity,HourlyPrecipIn,Conditions,Clouds,dailyrainin,SoftwareType,DateUTC
2013-11-21 00:02:00,8.6,-0.4,30.11,North,0,0.0,0.0,66,0.00,,---,0.00,VWS V13.01,2013-11-21 07:02:00,
2013-11-21 00:07:00,8.5,-0.5,30.12,North,0,0.0,0.0,66,0.00,,---,0.00,VWS V13.01,2013-11-21 07:07:00,
2013-11-21 00:12:00,8.5,-0.5,30.11,North,0,0.0,0.0,66,0.00,,---,0.00,VWS V13.01,2013-11-21 07:12:00,
2013-11-21 00:17:00,8.5,-0.5,30.11,North,0,0.0,1.0,66,0.00,,---,0.00,VWS V13.01,2013-11-21 07:17:00,
2013-11-21 00:22:00,8.4,-0.6,30.12,North,0,0.0,1.0,66,0.00,,---,0.00,VWS V13.01,2013-11-21 07:22:00,
2013-11-21 00:27:00,8.4,-0.6,30.10,North,0,0.0,1.0,66,0.00,,---,0.00,VWS V13.01,2013-11-21 07:27:00,
2013-11-21 00:32:00,8.5,-0.5,30.11,North,0,0.0,0.0,66,0.00,,---,0.00,VWS V13.01,2013-11-21 07:32:00,
2013-11-21 00:38:00,8.4,-0.6,30.11,North,0,0.0,1.0,66,0.00,,---,0.00,VWS V13.01,2013-11-21 07:38:00,
2013-11-21 00:43:00,8.4,-0.6,30.10,NNE,17,0.0,2.0,66,0.00,,---,0.00,VWS V13.01,2013-11-21 07:43:00,
2013-11-21 00:48:00,8.4,-0.6,30.10,NNE,18,0.0,2.0,66,0.00,,---,0.00,VWS V13.01,2013-11-21 07:48:00,
2013-11-21 00:53:00,8.5,-0.5,30.10,NNE,18,0.0,2.0,66,0.00,,---,0.00,VWS V13.01,2013-11-21 07:53:00,
2013-11-21 00:58:00,8.4,-0.6,30.10,NNE,19,0.0,2.0,66,0.00,,---,0.00,VWS V13.01,2013-11-21 07:58:00,
2013-11-21 01:03:00,8.6,-0.4,30.10,NNE,21,2.0,3.0,66,0.00,,---,0.00,VWS V13.01,2013-11-21 08:03:00,
2013-11-21 01:08:00,8.6,-0.4,30.09,NNE,22,0.0,3.0,66,0.00,,---,0.00,VWS V13.01,2013-11-21 08:08:00,
2013-11-21 01:13:00,8.7,-0.3,30.10,NNE,22,1.0,3.0,66,0.00,,---,0.00,VWS V13.01,2013-11-21 08:13:00,
2013-11-21 01:18:00,8.7,0.0,30.10,NNE,22,0.0,3.0,67,0.00,,---,0.00,VWS V13.01,2013-11-21 08:18:00,
2013-11-21 01:23:00,8.8,0.1,30.10,NNE,22,0.0,3.0,67,0.00,,---,0.00,VWS V13.01,2013-11-21 08:23:00,
2013-11-21 01:28:00,8.9,0.2,30.10,NNE,23,0.0,3.0,67,0.00,,---,0.00,VWS V13.01,2013-11-21 08:28:00,
2013-11-21 01:33:00,9.0,0.3,30.09,NNE,23,0.0,0.0,67,0.00,,---,0.00,VWS V13.01,2013-11-21 08:33:00,
2013-11-21 01:38:00,9.1,0.7,30.09,NNE,23,0.0,2.0,68,0.00,,---,0.00,VWS V13.01,2013-11-21 08:38:00,
2013-11-21 01:43:00,9.4,1.0,30.09,NNE,24,0.0,2.0,68,0.00,,---,0.00,VWS V13.01,2013-11-21 08:43:00,
2013-11-21 01:48:00,9.8,1.4,30.10,SSE,152,1.0,2.0,68,0.00,,---,0.00,VWS V13.01,2013-11-21 08:48:00,
2013-11-21 01:53:00,10.3,2.2,30.10,South,176,0.0,3.0,69,0.00,,---,0.00,VWS V13.01,2013-11-21 08:53:00,
2013-11-21 01:59:00,10.6,2.5,30.09,South,176,0.0,3.0,69,0.00,,---,0.00,VWS V13.01,2013-11-21 08:59:00,
2013-11-21 02:04:00,11.1,2.9,30.10,SSE,163,2.0,3.0,69,0.00,,---,0.00,VWS V13.01,2013-11-21 09:04:00,
2013-11-21 02:09:00,11.2,2.7,30.10,SE,145,2.0,4.0,68,0.00,,---,0.00,VWS V13.01,2013-11-21 09:09:00,
2013-11-21 02:14:00,11.3,2.8,30.10,SE,145,0.0,4.0,68,0.00,,---,0.00,VWS V13.01,2013-11-21 09:14:00,
2013-11-21 02:19:00,11.5,3.0,30.10,SE,145,0.0,4.0,68,0.00,,---,0.00,VWS V13.01,2013-11-21 09:19:00,
2013-11-21 02:24:00,11.7,3.2,30.10,SSE,149,0.0,4.0,68,0.00,,---,0.00,VWS V13.01,2013-11-21 09:24:00,
2013-11-21 02:29:00,11.8,3.3,30.10,SSE,149,0.0,4.0,68,0.00,,---,0.00,VWS V13.01,2013-11-21 09:29:00,
2013-11-21 02:34:00,12.0,3.5,30.10,SSE,149,0.0,0.0,68,0.00,,---,0.00,VWS V13.01,2013-11-21 09:34:00,
2013-11-21 02:39:00,12.0,3.5,30.10,SE,145,0.0,0.0,68,0.00,,---,0.00,VWS V13.01,2013-11-21 09:39:00,
2013-11-21 02:44:00,12.1,3.6,30.10,SE,145,0.0,0.0,68,0.00,,---,0.00,VWS V13.01,2013-11-21 09:44:00,
2013-11-21 02:49:00,12.1,3.6,30.10,SE,145,0.0,0.0,68,0.00,,---,0.00,VWS V13.01,2013-11-21 09:49:00,
2013-11-21 02:54:00,12.0,3.5,30.10,SE,145,0.0,0.0,68,0.00,,---,0.00,VWS V13.01,2013-11-21 09:54:00,
2013-11-21 02:59:00,12.0,3.5,30.10,SE,145,0.0,0.0,68,0.00,,---,0.00,VWS V13.01,2013-11-21 09:59:00,
2013-11-21 03:04:00,11.9,3.4,30.10,SE,145,0.0,0.0,68,0.00,,---,0.00,VWS V13.01,2013-11-21 10:04:00,
2013-11-21 03:09:00,11.8,3.3,30.09,SE,145,0.0,0.0,68,0.00,,---,0.00,VWS V13.01,2013-11-21 10:09:00,
2013-11-21 03:14:00,11.8,3.3,30.10,SE,145,0.0,0.0,68,0.00,,---,0.00,VWS V13.01,2013-11-21 10:14:00,
2013-11-21 03:19:00,11.8,3.3,30.10,SE,145,0.0,0.0,68,0.00,,---,0.00,VWS V13.01,2013-11-21 10:19:00,
2013-11-21 03:25:00,11.8,3.3,30.10,SE,145,0.0,0.0,68,0.00,,---,0.00,VWS V13.01,2013-11-21 10:25:00,
2013-11-21 03:30:00,11.8,3.3,30.10,SE,146,0.0,0.0,68,0.00,,---,0.00,VWS V13.01,2013-11-21 10:30:00,
2013-11-21 03:35:00,11.6,2.8,30.10,NNW,346,2.0,3.0,67,0.00,,---,0.00,VWS V13.01,2013-11-21 10:35:00,
2013-11-21 03:40:00,11.0,1.9,30.10,North,349,2.0,3.0,66,0.00,,---,0.00,VWS V13.01,2013-11-21 10:40:00,
2013-11-21 03:45:00,10.5,1.1,30.10,North,357,1.0,5.0,65,0.00,,---,0.00,VWS V13.01,2013-11-21 10:45:00,
2013-11-21 03:50:00,10.1,1.0,30.11,North,359,3.0,6.0,66,0.00,,---,0.00,VWS V13.01,2013-11-21 10:50:00,
2013-11-21 03:55:00,9.5,0.1,30.10,North,0,4.0,7.0,65,0.00,,---,0.00,VWS V13.01,2013-11-21 10:55:00,
2013-11-21 04:00:00,8.8,-0.6,30.11,North,0,3.0,4.0,65,0.00,,---,0.00,VWS V13.01,2013-11-21 11:00:00,
2013-11-21 04:05:00,8.3,-1.0,30.11,North,0,2.0,4.0,65,0.00,,---,0.00,VWS V13.01,2013-11-21 11:05:00,
2013-11-21 04:10:00,7.8,-1.5,30.11,North,0,1.0,5.0,65,0.00,,---,0.00,VWS V13.01,2013-11-21 11:10:00,
2013-11-21 04:15:00,7.6,-1.7,30.12,North,0,1.0,5.0,65,0.00,,---,0.00,VWS V13.01,2013-11-21 11:15:00,
2013-11-21 04:20:00,7.4,-1.9,30.12,North,0,0.0,5.0,65,0.00,,---,0.00,VWS V13.01,2013-11-21 11:20:00,
2013-11-21 04:25:00,7.4,-1.9,30.12,North,0,0.0,5.0,65,0.00,,---,0.00,VWS V13.01,2013-11-21 11:25:00,
2013-11-21 04:30:00,7.3,-2.0,30.11,North,0,1.0,3.0,65,0.00,,---,0.00,VWS V13.01,2013-11-21 11:30:00,
2013-11-21 04:35:00,7.4,-1.9,30.12,North,0,1.0,3.0,65,0.00,,---,0.00,VWS V13.01,2013-11-21 11:35:00,
2013-11-21 04:41:00,7.3,-2.0,30.12,North,0,0.0,3.0,65,0.00,,---,0.00,VWS V13.01,2013-11-21 11:41:00,
2013-11-21 04:46:00,7.3,-2.0,30.12,North,0,0.0,3.0,65,0.00,,---,0.00,VWS V13.01,2013-11-21 11:46:00,
2013-11-21 04:51:00,7.4,-1.9,30.13,North,0,1.0,3.0,65,0.00,,---,0.00,VWS V13.01,2013-11-21 11:51:00,
2013-11-21 04:56:00,7.4,-1.9,30.13,North,0,0.0,3.0,65,0.00,,---,0.00,VWS V13.01,2013-11-21 11:56:00,
2013-11-21 05:01:00,7.3,-2.0,30.13,North,0,0.0,0.0,65,0.00,,---,0.00,VWS V13.01,2013-11-21 12:01:00,
2013-11-21 05:06:00,7.4,-1.9,30.13,North,0,0.0,0.0,65,0.00,,---,0.00,VWS V13.01,2013-11-21 12:06:00,
2013-11-21 05:11:00,7.4,-1.9,30.13,North,0,0.0,0.0,65,0.00,,---,0.00,VWS V13.01,2013-11-21 12:11:00,
2013-11-21 05:16:00,7.3,-2.0,30.14,North,0,0.0,0.0,65,0.00,,---,0.00,VWS V13.01,2013-11-21 12:16:00,
2013-11-21 05:21:00,7.3,-2.0,30.13,North,0,0.0,1.0,65,0.00,,---,0.00,VWS V13.01,2013-11-21 12:21:00,
2013-11-21 05:26:00,7.4,-1.9,30.14,North,0,0.0,1.0,65,0.00,,---,0.00,VWS V13.01,2013-11-21 12:26:00,
2013-11-21 05:31:00,7.5,-1.5,30.15,North,0,0.0,0.0,66,0.00,,---,0.00,VWS V13.01,2013-11-21 12:31:00,
2013-11-21 05:36:00,7.6,-1.7,30.15,North,0,0.0,0.0,65,0.00,,---,0.00,VWS V13.01,2013-11-21 12:36:00,
2013-11-21 05:41:00,7.5,-1.8,30.15,North,0,0.0,0.0,65,0.00,,---,0.00,VWS V13.01,2013-11-21 12:41:00,
2013-11-21 05:46:00,7.6,-1.7,30.15,North,0,0.0,0.0,65,0.00,,---,0.00,VWS V13.01,2013-11-21 12:46:00,
2013-11-21 05:51:00,7.6,-1.7,30.16,North,0,0.0,0.0,65,0.00,,---,0.00,VWS V13.01,2013-11-21 12:51:00,
2013-11-21 05:56:00,7.7,-1.6,30.15,North,0,0.0,0.0,65,0.00,,---,0.00,VWS V13.01,2013-11-21 12:56:00,
2013-11-21 06:02:00,7.5,-1.8,30.16,North,0,0.0,0.0,65,0.00,,---,0.00,VWS V13.01,2013-11-21 13:02:00,
2013-11-21 06:07:00,7.4,-1.9,30.16,North,0,0.0,0.0,65,0.00,,---,0.00,VWS V13.01,2013-11-21 13:07:00,
2013-11-21 06:12:00,7.2,-2.1,30.16,North,0,0.0,0.0,65,0.00,,---,0.00,VWS V13.01,2013-11-21 13:12:00,
2013-11-21 06:17:00,7.2,-2.1,30.16,North,0,0.0,0.0,65,0.00,,---,0.00,VWS V13.01,2013-11-21 13:17:00,
2013-11-21 06:22:00,7.2,-2.1,30.16,North,0,0.0,0.0,65,0.00,,---,0.00,VWS V13.01,2013-11-21 13:22:00,
2013-11-21 06:27:00,7.1,-2.2,30.16,North,0,0.0,0.0,65,0.00,,---,0.00,VWS V13.01,2013-11-21 13:27:00,
2013-11-21 06:32:00,7.0,-2.3,30.17,North,0,0.0,0.0,65,0.00,,---,0.00,VWS V13.01,2013-11-21 13:32:00,
2013-11-21 06:37:00,7.0,-2.3,30.17,North,0,0.0,0.0,65,0.00,,---,0.00,VWS V13.01,2013-11-21 13:37:00,
2013-11-21 06:42:00,7.1,-2.2,30.17,North,0,0.0,0.0,65,0.00,,---,0.00,VWS V13.01,2013-11-21 13:42:00,
2013-11-21 06:47:00,7.1,-1.9,30.17,North,0,0.0,0.0,66,0.00,,---,0.00,VWS V13.01,2013-11-21 13:47:00,
2013-11-21 06:52:00,7.3,-1.7,30.17,North,0,0.0,0.0,66,0.00,,---,0.00,VWS V13.01,2013-11-21 13:52:00,
2013-11-21 06:57:00,7.3,-1.7,30.17,North,0,0.0,0.0,66,0.00,,---,0.00,VWS V13.01,2013-11-21 13:57:00,
2013-11-21 07:02:00,7.3,-2.0,30.18,North,0,0.0,0.0,65,0.00,,---,0.00,VWS V13.01,2013-11-21 14:02:00,
2013-11-21 07:07:00,7.3,-2.0,30.18,North,0,0.0,0.0,65,0.00,,---,0.00,VWS V13.01,2013-11-21 14:07:00,
2013-11-21 07:12:00,7.1,-2.5,30.18,North,0,0.0,0.0,64,0.00,,---,0.00,VWS V13.01,2013-11-21 14:12:00,
2013-11-21 07:18:00,6.8,-2.8,30.18,North,0,0.0,0.0,64,0.00,,---,0.00,VWS V13.01,2013-11-21 14:18:00,
2013-11-21 07:23:00,6.6,-3.0,30.19,North,0,0.0,0.0,64,0.00,,---,0.00,VWS V13.01,2013-11-21 14:23:00,
2013-11-21 07:28:00,6.5,-3.1,30.18,North,0,0.0,0.0,64,0.00,,---,0.00,VWS V13.01,2013-11-21 14:28:00,
2013-11-21 07:33:00,6.4,-3.2,30.20,North,0,0.0,0.0,64,0.00,,---,0.00,VWS V13.01,2013-11-21 14:33:00,
2013-11-21 07:38:00,6.4,-3.2,30.19,North,0,0.0,0.0,64,0.00,,---,0.00,VWS V13.01,2013-11-21 14:38:00,
2013-11-21 07:43:00,6.4,-3.2,30.20,North,0,0.0,0.0,64,0.00,,---,0.00,VWS V13.01,2013-11-21 14:43:00,
2013-11-21 07:48:00,6.5,-3.1,30.19,North,0,0.0,0.0,64,0.00,,---,0.00,VWS V13.01,2013-11-21 14:48:00,
2013-11-21 07:53:00,6.4,-3.5,30.21,North,0,0.0,0.0,63,0.00,,---,0.00,VWS V13.01,2013-11-21 14:53:00,
2013-11-21 07:58:00,6.3,-3.9,30.21,North,0,0.0,0.0,62,0.00,,---,0.00,VWS V13.01,2013-11-21 14:58:00,
2013-11-21 08:03:00,6.3,-4.3,30.21,North,0,0.0,0.0,61,0.00,,---,0.00,VWS V13.01,2013-11-21 15:03:00,
2013-11-21 08:08:00,6.2,-5.1,30.20,North,0,0.0,0.0,59,0.00,,---,0.00,VWS V13.01,2013-11-21 15:08:00,
2013-11-21 08:13:00,6.2,-5.1,30.21,North,0,0.0,0.0,59,0.00,,---,0.00,VWS V13.01,2013-11-21 15:13:00,
2013-11-21 08:18:00,6.1,-5.5,30.22,North,0,0.0,0.0,58,0.00,,---,0.00,VWS V13.01,2013-11-21 15:18:00,
2013-11-21 08:23:00,5.9,-6.0,30.22,North,0,0.0,1.0,57,0.00,,---,0.00,VWS V13.01,2013-11-21 15:23:00,
2013-11-21 08:28:00,5.7,-6.2,30.23,North,0,0.0,1.0,57,0.00,,---,0.00,VWS V13.01,2013-11-21 15:28:00,
2013-11-21 08:33:00,5.5,-6.4,30.22,North,0,0.0,0.0,57,0.00,,---,0.00,VWS V13.01,2013-11-21 15:33:00,
2013-11-21 08:39:00,5.3,-5.6,30.22,North,0,0.0,0.0,60,0.00,,---,0.00,VWS V13.01,2013-11-21 15:39:00,
2013-11-21 08:44:00,5.3,-4.5,30.23,North,0,0.0,0.0,63,0.00,,---,0.00,VWS V13.01,2013-11-21 15:44:00,
2013-11-21 08:49:00,5.0,-4.5,30.23,North,0,0.0,0.0,64,0.00,,---,0.00,VWS V13.01,2013-11-21 15:49:00,
2013-11-21 08:54:00,4.7,-5.8,30.23,North,0,0.0,0.0,61,0.00,,---,0.00,VWS V13.01,2013-11-21 15:54:00,
2013-11-21 08:59:00,4.6,-5.2,30.23,North,0,0.0,1.0,63,0.00,,---,0.00,VWS V13.01,2013-11-21 15:59:00,
2013-11-21 09:04:00,4.7,-4.8,30.24,North,0,0.0,0.0,64,0.00,,---,0.00,VWS V13.01,2013-11-21 16:04:00,
2013-11-21 09:09:00,4.9,-4.3,30.24,North,0,0.0,0.0,65,0.00,,---,0.00,VWS V13.01,2013-11-21 16:09:00,
2013-11-21 09:14:00,5.5,-3.4,30.24,North,0,0.0,0.0,66,0.00,,---,0.00,VWS V13.01,2013-11-21 16:14:00,
2013-11-21 09:19:00,6.4,-2.5,30.24,North,0,0.0,0.0,66,0.00,,---,0.00,VWS V13.01,2013-11-21 16:19:00,
2013-11-21 09:24:00,7.2,-1.4,30.25,North,0,0.0,0.0,67,0.00,,---,0.00,VWS V13.01,2013-11-21 16:24:00,
2013-11-21 09:29:00,7.9,-1.1,30.25,North,0,0.0,2.0,66,0.00,,---,0.00,VWS V13.01,2013-11-21 16:29:00,
2013-11-21 09:34:00,8.6,-0.4,30.26,North,0,0.0,1.0,66,0.00,,---,0.00,VWS V13.01,2013-11-21 16:34:00,
2013-11-21 09:39:00,9.2,0.2,30.25,North,0,0.0,1.0,66,0.00,,---,0.00,VWS V13.01,2013-11-21 16:39:00,
2013-11-21 09:44:00,10.1,1.0,30.27,North,0,0.0,1.0,66,0.00,,---,0.00,VWS V13.01,2013-11-21 16:44:00,
2013-11-21 09:49:00,10.9,1.8,30.26,North,0,0.0,1.0,66,0.00,,---,0.00,VWS V13.01,2013-11-21 16:49:00,
2013-11-21 09:55:00,11.5,2.4,30.26,North,0,0.0,1.0,66,0.00,,---,0.00,VWS V13.01,2013-11-21 16:55:00,
2013-11-21 10:00:00,12.0,2.8,30.26,North,0,0.0,1.0,66,0.00,,---,0.00,VWS V13.01,2013-11-21 17:00:00,
2013-11-21 10:05:00,12.4,2.9,30.26,North,0,0.0,1.0,65,0.00,,---,0.00,VWS V13.01,2013-11-21 17:05:00,
2013-11-21 10:10:00,12.7,3.2,30.26,North,0,0.0,1.0,65,0.00,,---,0.00,VWS V13.01,2013-11-21 17:10:00,
2013-11-21 10:15:00,13.2,3.7,30.26,North,0,0.0,2.0,65,0.00,,---,0.00,VWS V13.01,2013-11-21 17:15:00,
2013-11-21 10:20:00,13.7,4.5,30.27,SSW,209,0.0,2.0,66,0.00,,---,0.00,VWS V13.01,2013-11-21 17:20:00,
2013-11-21 10:25:00,13.9,4.3,30.27,South,190,2.0,2.0,65,0.00,,---,0.00,VWS V13.01,2013-11-21 17:25:00,
2013-11-21 10:30:00,13.8,3.9,30.27,SSW,196,1.0,1.0,64,0.00,,---,0.00,VWS V13.01,2013-11-21 17:30:00,
2013-11-21 10:35:00,13.5,3.3,30.27,SSW,194,0.0,2.0,63,0.00,,---,0.00,VWS V13.01,2013-11-21 17:35:00,
2013-11-21 10:40:00,13.1,2.9,30.27,SSW,194,0.0,2.0,63,0.00,,---,0.00,VWS V13.01,2013-11-21 17:40:00,
2013-11-21 10:45:00,13.1,3.2,30.27,South,190,1.0,2.0,64,0.00,,---,0.00,VWS V13.01,2013-11-21 17:45:00,
2013-11-21 10:50:00,13.1,3.2,30.27,SSW,192,2.0,2.0,64,0.00,,---,0.00,VWS V13.01,2013-11-21 17:50:00,
2013-11-21 10:55:00,13.1,3.2,30.27,South,184,1.0,3.0,64,0.00,,---,0.00,VWS V13.01,2013-11-21 17:55:00,
2013-11-21 11:01:00,13.1,3.2,30.27,SSW,196,0.0,1.0,64,0.00,,---,0.00,VWS V13.01,2013-11-21 18:01:00,
2013-11-21 11:06:00,13.2,3.3,30.27,SSW,193,2.0,3.0,64,0.00,,---,0.00,VWS V13.01,2013-11-21 18:06:00,
2013-11-21 11:11:00,13.4,3.8,30.27,SSW,192,0.0,3.0,65,0.00,,---,0.00,VWS V13.01,2013-11-21 18:11:00,
2013-11-21 11:16:00,13.5,3.9,30.27,SSW,196,1.0,4.0,65,0.00,,---,0.00,VWS V13.01,2013-11-21 18:16:00,
2013-11-21 11:21:00,13.6,4.0,30.26,SSW,194,0.0,4.0,65,0.00,,---,0.00,VWS V13.01,2013-11-21 18:21:00,
2013-11-21 11:26:00,13.7,4.1,30.27,South,190,0.0,4.0,65,0.00,,---,0.00,VWS V13.01,2013-11-21 18:26:00,
2013-11-21 11:31:00,14.0,4.8,30.27,South,189,1.0,1.0,66,0.00,,---,0.00,VWS V13.01,2013-11-21 18:31:00,
2013-11-21 11:36:00,14.2,4.6,30.26,South,189,0.0,1.0,65,0.00,,---,0.00,VWS V13.01,2013-11-21 18:36:00,
2013-11-21 11:41:00,14.6,5.0,30.26,South,190,0.0,1.0,65,0.00,,---,0.00,VWS V13.01,2013-11-21 18:41:00,
2013-11-21 11:46:00,14.8,5.2,30.26,South,187,0.0,1.0,65,0.01,,---,0.01,VWS V13.01,2013-11-21 18:46:00,
2013-11-21 11:51:00,14.9,4.9,30.26,South,181,0.0,1.0,64,0.01,,---,0.01,VWS V13.01,2013-11-21 18:51:00,
2013-11-21 11:56:00,15.0,5.4,30.26,South,183,0.0,1.0,65,0.01,,---,0.01,VWS V13.01,2013-11-21 18:56:00,
2013-11-21 12:01:00,15.3,5.7,30.26,South,187,1.0,1.0,65,0.01,,---,0.01,VWS V13.01,2013-11-21 19:01:00,
2013-11-21 12:07:00,15.7,6.4,30.27,South,186,0.0,2.0,66,0.01,,---,0.01,VWS V13.01,2013-11-21 19:07:00,
2013-11-21 12:12:00,16.0,6.3,30.26,South,184,0.0,2.0,65,0.01,,---,0.01,VWS V13.01,2013-11-21 19:12:00,
2013-11-21 12:17:00,16.4,6.7,30.27,South,191,2.0,2.0,65,0.01,,---,0.01,VWS V13.01,2013-11-21 19:17:00,
2013-11-21 12:22:00,16.9,7.5,30.25,SSW,199,1.0,2.0,66,0.01,,---,0.01,VWS V13.01,2013-11-21 19:22:00,
2013-11-21 12:27:00,17.3,7.9,30.26,SW,228,2.0,4.0,66,0.01,,---,0.01,VWS V13.01,2013-11-21 19:27:00,
2013-11-21 12:32:00,17.5,7.8,30.26,SW,236,3.0,3.0,65,0.01,,---,0.01,VWS V13.01,2013-11-21 19:32:00,
2013-11-21 12:37:00,17.5,7.8,30.26,SSW,197,2.0,4.0,65,0.01,,---,0.01,VWS V13.01,2013-11-21 19:37:00,
2013-11-21 12:42:00,17.7,8.3,30.26,SSW,203,1.0,4.0,66,0.01,,---,0.01,VWS V13.01,2013-11-21 19:42:00,
2013-11-21 12:47:00,17.9,8.5,30.26,SSW,207,1.0,4.0,66,0.01,,---,0.01,VWS V13.01,2013-11-21 19:47:00,
2013-11-21 12:52:00,18.1,8.7,30.27,SSW,208,0.0,4.0,66,0.01,,---,0.01,VWS V13.01,2013-11-21 19:52:00,
2013-11-21 12:57:00,18.3,8.9,30.27,SSW,207,0.0,4.0,66,0.01,,---,0.01,VWS V13.01,2013-11-21 19:57:00,
2013-11-21 13:02:00,18.4,8.6,30.26,SSW,206,0.0,1.0,65,0.00,,---,0.01,VWS V13.01,2013-11-21 20:02:00,
2013-11-21 13:07:00,18.5,8.7,30.26,SSW,206,1.0,2.0,65,0.00,,---,0.01,VWS V13.01,2013-11-21 20:07:00,
2013-11-21 13:12:00,18.7,8.9,30.27,SSW,207,2.0,3.0,65,0.00,,---,0.01,VWS V13.01,2013-11-21 20:12:00,
2013-11-21 13:17:00,18.7,9.2,30.26,SW,222,1.0,4.0,66,0.00,,---,0.01,VWS V13.01,2013-11-21 20:17:00,
2013-11-21 13:23:00,18.9,9.4,30.26,SW,224,2.0,4.0,66,0.00,,---,0.01,VWS V13.01,2013-11-21 20:23:00,
2013-11-21 13:28:00,19.1,9.6,30.26,SSW,213,2.0,4.0,66,0.00,,---,0.01,VWS V13.01,2013-11-21 20:28:00,
2013-11-21 13:33:00,19.2,9.4,30.26,SSW,209,0.0,2.0,65,0.00,,---,0.01,VWS V13.01,2013-11-21 20:33:00,
2013-11-21 13:38:00,19.2,9.0,30.27,South,189,1.0,2.0,64,0.00,,---,0.01,VWS V13.01,2013-11-21 20:38:00,
2013-11-21 13:43:00,19.2,9.0,30.26,South,191,0.0,2.0,64,0.00,,---,0.01,VWS V13.01,2013-11-21 20:43:00,
2013-11-21 13:48:00,19.1,9.3,30.26,SSW,198,0.0,3.0,65,0.00,,---,0.01,VWS V13.01,2013-11-21 20:48:00,
2013-11-21 13:53:00,19.1,9.3,30.27,SSW,192,0.0,3.0,65,0.00,,---,0.01,VWS V13.01,2013-11-21 20:53:00,
2013-11-21 13:58:00,19.2,9.4,30.26,South,190,0.0,3.0,65,0.00,,---,0.01,VWS V13.01,2013-11-21 20:58:00,
2013-11-21 14:03:00,19.1,8.9,30.26,SSW,198,2.0,3.0,64,0.00,,---,0.01,VWS V13.01,2013-11-21 21:03:00,
2013-11-21 14:08:00,19.2,9.7,30.26,SSW,202,1.0,3.0,66,0.00,,---,0.01,VWS V13.01,2013-11-21 21:08:00,
2013-11-21 14:13:00,19.8,12.2,30.26,SSW,201,1.0,3.0,72,0.00,,---,0.01,VWS V13.01,2013-11-21 21:13:00,
2013-11-21 14:18:00,20.7,14.0,30.27,SSW,201,0.0,3.0,75,0.00,,---,0.01,VWS V13.01,2013-11-21 21:18:00,
2013-11-21 14:23:00,21.3,14.6,30.27,SSW,201,0.0,3.0,75,0.00,,---,0.01,VWS V13.01,2013-11-21 21:23:00,
2013-11-21 14:28:00,21.6,15.2,30.26,SSW,200,0.0,3.0,76,0.00,,---,0.01,VWS V13.01,2013-11-21 21:28:00,
2013-11-21 14:34:00,21.6,14.6,30.26,SSW,200,0.0,0.0,74,0.00,,---,0.01,VWS V13.01,2013-11-21 21:34:00,
2013-11-21 14:39:00,21.3,13.1,30.26,SSW,200,0.0,0.0,70,0.00,,---,0.01,VWS V13.01,2013-11-21 21:39:00,
2013-11-21 14:44:00,21.1,11.9,30.27,SSW,200,0.0,0.0,67,0.00,,---,0.01,VWS V13.01,2013-11-21 21:44:00,
2013-11-21 14:49:00,20.8,10.6,30.27,SSW,200,0.0,0.0,64,0.00,,---,0.01,VWS V13.01,2013-11-21 21:49:00,
2013-11-21 14:54:00,20.5,10.3,30.27,SSW,202,0.0,0.0,64,0.00,,---,0.01,VWS V13.01,2013-11-21 21:54:00,
2013-11-21 14:59:00,20.1,9.9,30.28,SSW,202,0.0,0.0,64,0.00,,---,0.01,VWS V13.01,2013-11-21 21:59:00,
2013-11-21 15:04:00,19.8,9.6,30.28,SSW,202,0.0,0.0,64,0.00,,---,0.01,VWS V13.01,2013-11-21 22:04:00,
2013-11-21 15:09:00,19.4,9.2,30.28,SSW,202,0.0,0.0,64,0.00,,---,0.01,VWS V13.01,2013-11-21 22:09:00,
2013-11-21 15:14:00,19.2,8.7,30.28,SSW,203,0.0,0.0,63,0.00,,---,0.01,VWS V13.01,2013-11-21 22:14:00,
2013-11-21 15:19:00,19.0,8.5,30.28,SSW,203,0.0,0.0,63,0.00,,---,0.01,VWS V13.01,2013-11-21 22:19:00,
2013-11-21 15:24:00,18.8,8.6,30.28,SSW,203,0.0,0.0,64,0.00,,---,0.01,VWS V13.01,2013-11-21 22:24:00,
2013-11-21 15:29:00,18.6,8.5,30.28,SSW,203,0.0,0.0,64,0.00,,---,0.01,VWS V13.01,2013-11-21 22:29:00,
2013-11-21 15:34:00,18.3,7.8,30.28,SSW,203,0.0,0.0,63,0.00,,---,0.01,VWS V13.01,2013-11-21 22:34:00,
2013-11-21 15:39:00,18.0,7.5,30.29,SSW,203,0.0,0.0,63,0.00,,---,0.01,VWS V13.01,2013-11-21 22:39:00,
2013-11-21 15:45:00,17.8,7.3,30.29,SSW,203,0.0,0.0,63,0.00,,---,0.01,VWS V13.01,2013-11-21 22:45:00,
2013-11-21 15:50:00,17.5,7.1,30.29,SSW,203,0.0,0.0,63,0.00,,---,0.01,VWS V13.01,2013-11-21 22:50:00,
2013-11-21 15:55:00,16.8,6.1,30.29,SSW,204,0.0,1.0,62,0.00,,---,0.01,VWS V13.01,2013-11-21 22:55:00,
2013-11-21 16:00:00,15.9,4.8,30.29,SSW,204,0.0,1.0,61,0.00,,---,0.01,VWS V13.01,2013-11-21 23:00:00,
2013-11-21 16:05:00,14.9,3.9,30.29,SSW,203,1.0,1.0,61,0.00,,---,0.01,VWS V13.01,2013-11-21 23:05:00,
2013-11-21 16:10:00,14.3,3.3,30.28,SSW,203,0.0,1.0,61,0.00,,---,0.01,VWS V13.01,2013-11-21 23:10:00,
2013-11-21 16:15:00,13.7,2.8,30.28,SSW,203,0.0,1.0,61,0.00,,---,0.01,VWS V13.01,2013-11-21 23:15:00,
2013-11-21 16:20:00,13.2,1.9,30.29,SSW,198,0.0,1.0,60,0.00,,---,0.01,VWS V13.01,2013-11-21 23:20:00,
2013-11-21 16:25:00,12.6,1.4,30.29,SSW,199,0.0,1.0,60,0.00,,---,0.01,VWS V13.01,2013-11-21 23:25:00,
2013-11-21 16:30:00,12.2,1.0,30.30,SSW,200,0.0,0.0,60,0.00,,---,0.01,VWS V13.01,2013-11-21 23:30:00,
2013-11-21 16:35:00,11.7,0.9,30.29,SSW,200,0.0,1.0,61,0.00,,---,0.01,VWS V13.01,2013-11-21 23:35:00,
2013-11-21 16:40:00,11.3,0.5,30.29,SSW,200,0.0,1.0,61,0.00,,---,0.01,VWS V13.01,2013-11-21 23:40:00,
2013-11-21 16:45:00,10.8,0.0,30.29,SSW,200,0.0,1.0,61,0.00,,---,0.01,VWS V13.01,2013-11-21 23:45:00,
2013-11-21 16:50:00,10.2,-0.9,30.29,SSW,197,0.0,2.0,60,0.00,,---,0.01,VWS V13.01,2013-11-21 23:50:00,
2013-11-21 16:56:00,9.6,-1.1,30.29,SSW,195,0.0,3.0,61,0.00,,---,0.01,VWS V13.01,2013-11-21 23:56:00,
2013-11-21 17:01:00,9.1,-2.0,30.29,SSW,195,0.0,0.0,60,0.00,,---,0.01,VWS V13.01,2013-11-22 00:01:00,
2013-11-21 17:06:00,8.7,-2.0,30.29,SSW,202,1.0,3.0,61,0.00,,---,0.01,VWS V13.01,2013-11-22 00:06:00,
2013-11-21 17:11:00,8.2,-2.5,30.30,South,186,3.0,4.0,61,0.00,,---,0.01,VWS V13.01,2013-11-22 00:11:00,
2013-11-21 17:16:00,7.8,-2.8,30.29,South,185,2.0,4.0,61,0.00,,---,0.01,VWS V13.01,2013-11-22 00:16:00,
2013-11-21 17:21:00,7.8,-2.2,30.29,SSW,194,1.0,4.0,63,0.00,,---,0.01,VWS V13.01,2013-11-22 00:21:00,
2013-11-21 17:26:00,8.0,-2.0,30.29,South,184,2.0,4.0,63,0.00,,---,0.01,VWS V13.01,2013-11-22 00:26:00,
2013-11-21 17:31:00,8.0,-2.0,30.29,South,191,1.0,2.0,63,0.00,,---,0.01,VWS V13.01,2013-11-22 00:31:00,
2013-11-21 17:36:00,8.0,-2.0,30.29,South,186,2.0,3.0,63,0.00,,---,0.01,VWS V13.01,2013-11-22 00:36:00,
2013-11-21 17:41:00,8.0,-2.0,30.30,South,182,1.0,3.0,63,0.00,,---,0.01,VWS V13.01,2013-11-22 00:41:00,
2013-11-21 17:46:00,8.2,-1.8,30.29,South,179,0.0,3.0,63,0.00,,---,0.01,VWS V13.01,2013-11-22 00:46:00,
2013-11-21 17:51:00,8.3,-1.7,30.30,South,179,0.0,3.0,63,0.00,,---,0.01,VWS V13.01,2013-11-22 00:51:00,
2013-11-21 17:56:00,8.0,-2.3,30.29,South,179,0.0,3.0,62,0.00,,---,0.01,VWS V13.01,2013-11-22 00:56:00,
2013-11-21 18:02:00,7.7,-2.6,30.30,South,179,1.0,2.0,62,0.00,,---,0.01,VWS V13.01,2013-11-22 01:02:00,
2013-11-21 18:07:00,7.2,-3.4,30.30,South,181,1.0,2.0,61,0.00,,---,0.01,VWS V13.01,2013-11-22 01:07:00,
2013-11-21 18:12:00,6.1,-5.5,30.29,SSE,156,1.0,3.0,58,0.00,,---,0.01,VWS V13.01,2013-11-22 01:12:00,
2013-11-21 18:17:00,5.2,-6.0,30.29,SSE,148,2.0,3.0,59,0.00,,---,0.01,VWS V13.01,2013-11-22 01:17:00,
2013-11-21 18:22:00,4.4,-6.4,30.30,SSE,154,0.0,3.0,60,0.00,,---,0.01,VWS V13.01,2013-11-22 01:22:00,
2013-11-21 18:27:00,4.1,-6.7,30.30,South,181,3.0,3.0,60,0.00,,---,0.01,VWS V13.01,2013-11-22 01:27:00,
2013-11-21 18:32:00,3.4,-7.0,30.30,South,183,1.0,1.0,61,0.00,,---,0.01,VWS V13.01,2013-11-22 01:32:00,
2013-11-21 18:37:00,3.0,-7.1,30.30,South,180,2.0,4.0,62,0.00,,---,0.01,VWS V13.01,2013-11-22 01:37:00,
2013-11-21 18:42:00,2.8,-7.2,30.30,South,186,0.0,4.0,62,0.00,,---,0.01,VWS V13.01,2013-11-22 01:42:00,
2013-11-21 18:47:00,2.8,-6.6,30.31,South,185,1.0,4.0,64,0.00,,---,0.01,VWS V13.01,2013-11-22 01:47:00,
2013-11-21 18:52:00,2.8,-6.9,30.30,SSW,193,2.0,4.0,63,0.00,,---,0.01,VWS V13.01,2013-11-22 01:52:00,
2013-11-21 18:57:00,2.7,-7.0,30.31,SSW,192,3.0,4.0,63,0.00,,---,0.01,VWS V13.01,2013-11-22 01:57:00,
2013-11-21 19:02:00,2.7,-6.7,30.31,South,189,1.0,2.0,64,0.00,,---,0.01,VWS V13.01,2013-11-22 02:02:00,
2013-11-21 19:07:00,3.0,-6.1,30.30,SSE,154,2.0,3.0,65,0.00,,---,0.01,VWS V13.01,2013-11-22 02:07:00,
2013-11-21 19:08:00,3.0,-6.1,30.31,SSW,196,1.0,6.0,65,0.00,,---,0.01,VWS V13.01,2013-11-22 02:08:00,
2013-11-21 19:09:00,3.1,-5.7,30.31,South,175,3.0,6.0,66,0.00,,---,0.01,VWS V13.01,2013-11-22 02:09:00,
2013-11-21 19:10:00,3.2,-5.6,30.31,South,184,3.0,6.0,66,0.00,,---,0.01,VWS V13.01,2013-11-22 02:10:00,
2013-11-21 19:15:00,3.5,-5.3,30.30,South,176,1.0,6.0,66,0.00,,---,0.01,VWS V13.01,2013-11-22 02:15:00,
2013-11-21 19:20:00,3.4,-6.3,30.30,SE,136,0.0,6.0,63,0.00,,---,0.01,VWS V13.01,2013-11-22 02:20:00,
2013-11-21 19:26:00,3.2,-6.2,30.31,SSW,207,0.0,6.0,64,0.00,,---,0.01,VWS V13.01,2013-11-22 02:26:00,
2013-11-21 19:31:00,3.1,-6.6,30.31,South,191,3.0,3.0,63,0.00,,---,0.01,VWS V13.01,2013-11-22 02:31:00,
2013-11-21 19:36:00,2.9,-6.8,30.31,SSW,194,1.0,3.0,63,0.00,,---,0.01,VWS V13.01,2013-11-22 02:36:00,
2013-11-21 19:41:00,2.9,-6.2,30.31,South,186,3.0,5.0,65,0.00,,---,0.01,VWS V13.01,2013-11-22 02:41:00,
2013-11-21 19:46:00,3.1,-5.7,30.31,South,191,1.0,5.0,66,0.00,,---,0.01,VWS V13.01,2013-11-22 02:46:00,
2013-11-21 19:51:00,3.1,-6.0,30.31,South,185,1.0,5.0,65,0.00,,---,0.01,VWS V13.01,2013-11-22 02:51:00,
2013-11-21 19:56:00,3.3,-5.5,30.31,South,185,1.0,5.0,66,0.00,,---,0.01,VWS V13.01,2013-11-22 02:56:00,
2013-11-21 20:01:00,3.9,-4.9,30.30,SSE,161,1.0,3.0,66,0.00,,---,0.01,VWS V13.01,2013-11-22 03:01:00,
2013-11-21 20:06:00,4.2,-4.6,30.30,SSE,153,2.0,4.0,66,0.00,,---,0.01,VWS V13.01,2013-11-22 03:06:00,
2013-11-21 20:11:00,4.2,-5.3,30.31,SE,142,3.0,4.0,64,0.00,,---,0.01,VWS V13.01,2013-11-22 03:11:00,
2013-11-21 20:16:00,3.7,-6.4,30.31,SE,146,1.0,4.0,62,0.00,,---,0.01,VWS V13.01,2013-11-22 03:16:00,
2013-11-21 20:21:00,3.1,-6.6,30.30,SSE,148,2.0,4.0,63,0.00,,---,0.01,VWS V13.01,2013-11-22 03:21:00,
2013-11-21 20:26:00,3.1,-6.0,30.30,South,189,1.0,4.0,65,0.00,,---,0.01,VWS V13.01,2013-11-22 03:26:00,
2013-11-21 20:31:00,3.5,-5.3,30.31,SSW,196,2.0,3.0,66,0.00,,---,0.01,VWS V13.01,2013-11-22 03:31:00,
2013-11-21 20:36:00,3.9,-4.9,30.31,SSE,157,2.0,4.0,66,0.00,,---,0.01,VWS V13.01,2013-11-22 03:36:00,
2013-11-21 20:42:00,4.1,-5.0,30.31,SE,140,2.0,4.0,65,0.00,,---,0.01,VWS V13.01,2013-11-22 03:42:00,
2013-11-21 20:47:00,4.7,-3.8,30.30,South,174,2.0,4.0,67,0.00,,---,0.01,VWS V13.01,2013-11-22 03:47:00,
2013-11-21 20:52:00,5.6,-3.0,30.31,SSW,197,3.0,5.0,67,0.00,,---,0.01,VWS V13.01,2013-11-22 03:52:00,
2013-11-21 20:57:00,6.0,-3.5,30.30,South,184,3.0,5.0,64,0.00,,---,0.01,VWS V13.01,2013-11-22 03:57:00,
2013-11-21 21:02:00,5.8,-4.4,30.30,South,191,1.0,6.0,62,0.00,,---,0.01,VWS V13.01,2013-11-22 04:02:00,
2013-11-21 21:07:00,5.4,-5.5,30.31,SSW,205,2.0,6.0,60,0.00,,---,0.01,VWS V13.01,2013-11-22 04:07:00,
2013-11-21 21:12:00,4.7,-6.5,30.31,SSW,209,2.0,6.0,59,0.00,,---,0.01,VWS V13.01,2013-11-22 04:12:00,
2013-11-21 21:17:00,3.9,-7.2,30.30,South,184,2.0,6.0,59,0.00,,---,0.01,VWS V13.01,2013-11-22 04:17:00,
2013-11-21 21:22:00,4.0,-6.1,30.31,SSE,149,0.0,6.0,62,0.00,,---,0.01,VWS V13.01,2013-11-22 04:22:00,
2013-11-21 21:27:00,4.7,-4.8,30.31,South,182,1.0,6.0,64,0.00,,---,0.01,VWS V13.01,2013-11-22 04:27:00,
2013-11-21 21:32:00,5.6,-3.9,30.30,South,191,5.0,7.0,64,0.00,,---,0.01,VWS V13.01,2013-11-22 04:32:00,
2013-11-21 21:37:00,6.4,-3.2,30.31,SSW,210,2.0,7.0,64,0.00,,---,0.01,VWS V13.01,2013-11-22 04:37:00,
2013-11-21 21:42:00,6.4,-3.8,30.30,South,190,5.0,8.0,62,0.00,,---,0.01,VWS V13.01,2013-11-22 04:42:00,
2013-11-21 21:47:00,6.8,-3.1,30.30,South,186,2.0,8.0,63,0.00,,---,0.01,VWS V13.01,2013-11-22 04:47:00,
2013-11-21 21:53:00,7.0,-3.6,30.30,South,175,4.0,8.0,61,0.00,,---,0.01,VWS V13.01,2013-11-22 04:53:00,
2013-11-21 21:58:00,7.0,-3.9,30.30,South,180,3.0,8.0,60,0.00,,---,0.01,VWS V13.01,2013-11-22 04:58:00,
2013-11-21 22:01:00,6.8,-4.5,30.31,South,178,2.0,7.0,59,0.00,,---,0.01,VWS V13.01,2013-11-22 05:01:00,
2013-11-21 22:02:00,6.7,-4.6,30.30,SSE,167,2.0,7.0,59,0.00,,---,0.01,VWS V13.01,2013-11-22 05:02:00,
2013-11-21 22:03:00,6.5,-4.8,30.31,SSE,164,2.0,7.0,59,0.00,,---,0.01,VWS V13.01,2013-11-22 05:03:00,
2013-11-21 22:08:00,6.0,-5.2,30.30,South,181,2.0,7.0,59,0.00,,---,0.01,VWS V13.01,2013-11-22 05:08:00,
2013-11-21 22:13:00,5.6,-5.6,30.30,South,182,3.0,7.0,59,0.00,,---,0.01,VWS V13.01,2013-11-22 05:13:00,
2013-11-21 22:18:00,5.7,-5.5,30.30,SSW,192,3.0,7.0,59,0.00,,---,0.01,VWS V13.01,2013-11-22 05:18:00,
2013-11-21 22:24:00,5.5,-5.7,30.30,SSW,198,4.0,7.0,59,0.00,,---,0.01,VWS V13.01,2013-11-22 05:24:00,
2013-11-21 22:29:00,5.5,-5.4,30.31,South,188,2.0,7.0,60,0.00,,---,0.01,VWS V13.01,2013-11-22 05:29:00,
2013-11-21 22:34:00,5.8,-5.1,30.31,South,186,1.0,5.0,60,0.00,,---,0.01,VWS V13.01,2013-11-22 05:34:00,
2013-11-21 22:39:00,6.0,-4.9,30.30,SSE,150,5.0,7.0,60,0.00,,---,0.01,VWS V13.01,2013-11-22 05:39:00,
2013-11-21 22:44:00,6.5,-4.1,30.31,South,190,5.0,7.0,61,0.00,,---,0.01,VWS V13.01,2013-11-22 05:44:00,
2013-11-21 22:49:00,7.0,-3.9,30.31,SE,135,1.0,7.0,60,0.00,,---,0.01,VWS V13.01,2013-11-22 05:49:00,
2013-11-21 22:54:00,6.4,-5.6,30.31,SE,128,2.0,7.0,57,0.00,,---,0.01,VWS V13.01,2013-11-22 05:54:00,
2013-11-21 22:59:00,5.4,-6.9,30.30,South,171,2.0,2.0,56,0.00,,---,0.01,VWS V13.01,2013-11-22 05:59:00,
2013-11-21 23:04:00,5.0,-6.5,30.31,SSE,160,2.0,4.0,58,0.00,,---,0.01,VWS V13.01,2013-11-22 06:04:00,
2013-11-21 23:09:00,4.3,-7.6,30.30,SE,142,2.0,4.0,57,0.00,,---,0.01,VWS V13.01,2013-11-22 06:09:00,
2013-11-21 23:30:00,3.8,-7.7,30.31,SSE,158,3.0,7.0,58,0.00,,---,0.01,VWS V13.01,2013-11-22 06:30:00,